SWR180 LSZH-VTBS

Flight info

Callsign SWR180
Flight time N/A
Altitude 33000
Route DEGES Z2 UMVEG DCT DIMLO DCT INVED DCT SOKRU DCT DINRO DCT UDROS UM859 KARDE UL851 TBN UM11 REBLO/N0486F350 M11 LUSAL N701 LARGI B701 TUGTA A909 LEMOD N644 DI A466 SULOM M890 PUMOT/N0494F370 M890 LKN R460 CEA L507 IGONI DCT WILLA WILLA1C
Aircraft B77W/H-SDE1E2E3FGHIJ2J3J4J5M1RWXY/LB1D1

Departure

Time 2026-05-04 00:19
Airport Zürich Airport (LSZH)

Arrival

Time N/A
Airport Suvarnabhumi Airport (VTBS)
Time Latitude Longitude Altitude Speed Heading
2026-05-04 00:09 47.45188 8.55807 1406 ft 0 kts 186°
2026-05-04 00:11 47.45197 8.55809 1406 ft 2 kts 186°
2026-05-04 00:12 47.45219 8.55810 1406 ft 3 kts 174°
2026-05-04 00:12 47.45235 8.55802 1406 ft 2 kts 139°
2026-05-04 00:12 47.45246 8.55777 1405 ft 2 kts 107°
2026-05-04 00:12 47.45248 8.55770 1405 ft 0 kts 96°
2026-05-04 00:13 47.45248 8.55765 1405 ft 2 kts 92°
2026-05-04 00:13 47.45250 8.55729 1404 ft 4 kts 105°
2026-05-04 00:13 47.45255 8.55687 1402 ft 4 kts 100°
2026-05-04 00:13 47.45262 8.55646 1401 ft 3 kts 111°
2026-05-04 00:14 47.45272 8.55610 1401 ft 3 kts 122°
2026-05-04 00:14 47.45289 8.55583 1401 ft 3 kts 135°
2026-05-04 00:14 47.45309 8.55562 1400 ft 3 kts 148°
2026-05-04 00:14 47.45321 8.55551 1401 ft 0 kts 159°
2026-05-04 00:16 47.45262 8.55574 1400 ft 19 kts 167°
2026-05-04 00:17 47.45086 8.55602 1397 ft 30 kts 162°
2026-05-04 00:17 47.44863 8.55756 1397 ft 39 kts 153°
2026-05-04 00:17 47.44698 8.55868 1397 ft 19 kts 158°
2026-05-04 00:17 47.44614 8.55802 1395 ft 13 kts 240°
2026-05-04 00:18 47.44582 8.55678 1393 ft 11 kts 284°
2026-05-04 00:18 47.44637 8.55613 1393 ft 11 kts 334°
2026-05-04 00:18 47.44800 8.55504 1393 ft 51 kts 335°
2026-05-04 00:18 47.45329 8.55126 1393 ft 116 kts 335°
2026-05-04 00:19 47.46239 8.54509 1387 ft 173 kts 337°
2026-05-04 00:19 47.47420 8.53722 1670 ft 195 kts 335°
2026-05-04 00:19 47.48685 8.52836 2222 ft 212 kts 335°
2026-05-04 00:19 47.49984 8.51908 3109 ft 200 kts 332°
2026-05-04 00:20 47.51090 8.51032 3953 ft 182 kts 334°
2026-05-04 00:20 47.52334 8.50274 4097 ft 201 kts 349°
2026-05-04 00:20 47.53762 8.50464 4185 ft 220 kts 26°
2026-05-04 00:20 47.54964 8.51968 4336 ft 238 kts 61°
2026-05-04 00:21 47.55464 8.54357 4542 ft 255 kts 91°
2026-05-04 00:21 47.55483 8.57053 4948 ft 269 kts 83°
2026-05-04 00:21 47.55830 8.59745 5650 ft 274 kts 79°
2026-05-04 00:21 47.56244 8.62547 6302 ft 280 kts 79°
2026-05-04 00:22 47.56662 8.65348 7011 ft 283 kts 79°
2026-05-04 00:22 47.56956 8.68192 7685 ft 283 kts 95°
2026-05-04 00:22 47.56497 8.70974 8270 ft 283 kts 121°
2026-05-04 00:22 47.55265 8.73196 8939 ft 280 kts 142°
2026-05-04 00:23 47.53731 8.74942 9668 ft 279 kts 146°
2026-05-04 00:23 47.52157 8.76593 10285 ft 285 kts 147°
2026-05-04 00:23 47.50494 8.78324 10603 ft 301 kts 147°
2026-05-04 00:23 47.48756 8.80192 10912 ft 319 kts 141°
2026-05-04 00:24 47.47215 8.82705 11204 ft 339 kts 125°
2026-05-04 00:24 47.46175 8.85894 11525 ft 358 kts 109°
2026-05-04 00:24 47.45578 8.89567 11891 ft 374 kts 103°
2026-05-04 00:24 47.45053 8.93373 12294 ft 388 kts 103°
2026-05-04 00:25 47.44509 8.97319 12928 ft 396 kts 103°
2026-05-04 00:25 47.43953 9.01294 13615 ft 402 kts 103°
2026-05-04 00:25 47.43383 9.05323 14327 ft 406 kts 103°
2026-05-04 00:25 47.42798 9.09425 15068 ft 410 kts 103°
2026-05-04 00:26 47.42205 9.13548 15761 ft 415 kts 103°
2026-05-04 00:26 47.41709 9.17735 16429 ft 420 kts 96°
2026-05-04 00:26 47.41684 9.22046 17088 ft 426 kts 86°
2026-05-04 00:26 47.42159 9.26371 17745 ft 431 kts 79°
2026-05-04 00:27 47.42815 9.30687 18427 ft 435 kts 78°
2026-05-04 00:27 47.43481 9.35020 19070 ft 439 kts 78°
2026-05-04 00:27 47.44161 9.39471 19687 ft 445 kts 78°
2026-05-04 00:27 47.44841 9.43950 20304 ft 450 kts 78°
2026-05-04 00:28 47.45522 9.48455 20894 ft 454 kts 78°
2026-05-04 00:28 47.46202 9.52973 21457 ft 459 kts 77°
2026-05-04 00:28 47.46852 9.57615 21995 ft 463 kts 82°
2026-05-04 00:28 47.47073 9.62366 22535 ft 466 kts 91°
2026-05-04 00:29 47.46891 9.67116 23067 ft 470 kts 95°
2026-05-04 00:29 47.46634 9.71922 23562 ft 474 kts 96°
2026-05-04 00:29 47.46366 9.76780 24068 ft 478 kts 96°
2026-05-04 00:29 47.46094 9.81709 24647 ft 481 kts 96°
2026-05-04 00:30 47.45821 9.86604 25222 ft 483 kts 96°
2026-05-04 00:30 47.45542 9.91550 25686 ft 487 kts 96°
2026-05-04 00:30 47.45262 9.96485 26141 ft 491 kts 96°
2026-05-04 00:30 47.44975 10.01526 26681 ft 493 kts 96°
2026-05-04 00:31 47.44684 10.06577 27176 ft 496 kts 96°
2026-05-04 00:31 47.44391 10.11647 27634 ft 499 kts 96°
2026-05-04 00:31 47.44091 10.16708 28128 ft 501 kts 97°
2026-05-04 00:31 47.43542 10.21813 28579 ft 502 kts 102°
2026-05-04 00:32 47.42870 10.26869 29002 ft 505 kts 103°
2026-05-04 00:32 47.42182 10.31961 29450 ft 508 kts 103°
2026-05-04 00:32 47.41490 10.37070 29944 ft 509 kts 103°
2026-05-04 00:32 47.40803 10.42127 30473 ft 509 kts 103°
2026-05-04 00:33 47.40107 10.47242 31111 ft 507 kts 103°
2026-05-04 00:33 47.38715 10.57367 32239 ft 503 kts 103°
2026-05-04 00:33 47.38017 10.62409 32652 ft 504 kts 103°
2026-05-04 00:34 47.37315 10.67462 33046 ft 504 kts 103°
2026-05-04 00:34 47.36606 10.72550 33162 ft 507 kts 103°
2026-05-04 00:34 47.35898 10.77619 33175 ft 505 kts 103°
2026-05-04 00:35 47.34490 10.87649 33200 ft 502 kts 103°
2026-05-04 00:35 47.33064 10.97739 33194 ft 503 kts 103°
2026-05-04 00:36 47.31636 11.07769 33172 ft 503 kts 103°
2026-05-04 00:36 47.30202 11.17785 33173 ft 502 kts 103°
2026-05-04 00:37 47.28755 11.27824 33140 ft 503 kts 103°
2026-05-04 00:37 47.27303 11.37829 33141 ft 503 kts 103°
2026-05-04 00:38 47.25834 11.47883 33138 ft 502 kts 103°
2026-05-04 00:38 47.24547 11.57948 33172 ft 503 kts 99°
2026-05-04 00:39 47.23483 11.68103 33180 ft 503 kts 100°
2026-05-04 00:39 47.22396 11.78241 33184 ft 502 kts 101°
2026-05-04 00:40 47.21299 11.88288 33185 ft 503 kts 101°
2026-05-04 00:40 47.20281 11.98417 33186 ft 502 kts 99°
2026-05-04 00:41 47.19309 12.08587 33160 ft 503 kts 99°
2026-05-04 00:41 47.18323 12.18729 33170 ft 502 kts 99°
2026-05-04 00:42 47.17323 12.28879 33168 ft 503 kts 99°
2026-05-04 00:42 47.16314 12.38991 33181 ft 503 kts 99°
2026-05-04 00:43 47.15291 12.49149 33184 ft 503 kts 99°
2026-05-04 00:43 47.14267 12.59210 33179 ft 502 kts 99°
2026-05-04 00:44 47.13224 12.69369 33164 ft 504 kts 99°
2026-05-04 00:44 47.12175 12.79494 33139 ft 503 kts 99°
2026-05-04 00:45 47.11122 12.89568 33138 ft 503 kts 99°
2026-05-04 00:45 47.10052 12.99713 33142 ft 503 kts 99°
2026-05-04 00:46 47.08974 13.09837 33159 ft 503 kts 99°
2026-05-04 00:46 47.07887 13.19970 33182 ft 504 kts 99°
2026-05-04 00:47 47.06794 13.30058 33181 ft 503 kts 99°
2026-05-04 00:47 47.05691 13.40157 33184 ft 503 kts 99°
2026-05-04 00:48 47.04584 13.50211 33193 ft 504 kts 98°
2026-05-04 00:48 47.03465 13.60290 33178 ft 502 kts 98°
2026-05-04 00:49 47.02340 13.70340 33182 ft 504 kts 99°
2026-05-04 00:49 47.01196 13.80476 33177 ft 503 kts 99°
2026-05-04 00:50 47.00049 13.90555 33181 ft 504 kts 99°
2026-05-04 00:50 46.98894 14.00621 33176 ft 502 kts 99°
2026-05-04 00:51 46.97738 14.10621 33170 ft 502 kts 99°
2026-05-04 00:51 46.96563 14.20690 33153 ft 502 kts 99°
2026-05-04 00:52 46.95390 14.30679 33144 ft 500 kts 99°
2026-05-04 00:52 46.94202 14.40708 33134 ft 501 kts 99°
2026-05-04 00:53 46.93006 14.50725 33126 ft 500 kts 99°
2026-05-04 00:53 46.91814 14.60640 33114 ft 499 kts 98°
2026-05-04 00:54 46.90604 14.70616 33115 ft 499 kts 99°
2026-05-04 00:54 46.89385 14.80599 33111 ft 498 kts 99°
2026-05-04 00:55 46.88167 14.90498 33096 ft 498 kts 99°
2026-05-04 00:55 46.86939 15.00407 33110 ft 498 kts 99°
2026-05-04 00:56 46.85699 15.10333 33095 ft 498 kts 99°
2026-05-04 00:56 46.84458 15.20199 33096 ft 498 kts 99°
2026-05-04 00:57 46.83199 15.30134 33088 ft 498 kts 99°
2026-05-04 00:57 46.81932 15.40060 33087 ft 498 kts 99°
2026-05-04 00:58 46.80660 15.49958 33085 ft 499 kts 98°
2026-05-04 00:58 46.79373 15.59889 33085 ft 498 kts 98°
2026-05-04 00:59 46.78088 15.69741 33080 ft 498 kts 99°
2026-05-04 00:59 46.76790 15.79629 33079 ft 498 kts 99°
2026-05-04 01:00 46.75479 15.89534 33081 ft 498 kts 99°
2026-05-04 01:00 46.74166 15.99389 33077 ft 497 kts 99°
2026-05-04 01:01 46.72847 16.09231 33077 ft 497 kts 99°
2026-05-04 01:01 46.71516 16.19087 33080 ft 497 kts 98°
2026-05-04 01:02 46.70177 16.28928 33084 ft 497 kts 98°
2026-05-04 01:02 46.68836 16.38729 33081 ft 496 kts 98°
2026-05-04 01:03 46.67583 16.48556 33086 ft 495 kts 96°
2026-05-04 01:03 46.66473 16.58420 33081 ft 495 kts 96°
2026-05-04 01:04 46.65347 16.68282 33086 ft 495 kts 97°
2026-05-04 01:04 46.64206 16.78135 33085 ft 495 kts 97°
2026-05-04 01:05 46.63057 16.87957 33090 ft 495 kts 97°
2026-05-04 01:05 46.61902 16.97738 33091 ft 494 kts 97°
2026-05-04 01:06 46.60733 17.07556 33100 ft 494 kts 97°
2026-05-04 01:06 46.59557 17.17352 33102 ft 493 kts 97°
2026-05-04 01:07 46.58372 17.27149 33107 ft 493 kts 97°
2026-05-04 01:07 46.57184 17.36899 33103 ft 493 kts 97°
2026-05-04 01:08 46.55981 17.46691 33102 ft 492 kts 97°
2026-05-04 01:08 46.54779 17.56403 33108 ft 492 kts 97°
2026-05-04 01:09 46.53561 17.66175 33105 ft 492 kts 97°
2026-05-04 01:09 46.52345 17.75863 33113 ft 491 kts 97°
2026-05-04 01:10 46.51113 17.85609 33114 ft 491 kts 97°
2026-05-04 01:10 46.49882 17.95280 33122 ft 491 kts 97°
2026-05-04 01:11 46.48634 18.05009 33121 ft 490 kts 97°
2026-05-04 01:11 46.47390 18.14639 33121 ft 490 kts 97°
2026-05-04 01:12 46.46128 18.24342 33123 ft 489 kts 97°
2026-05-04 01:12 46.44861 18.34023 33123 ft 489 kts 97°
2026-05-04 01:13 46.43597 18.43610 33125 ft 489 kts 97°
2026-05-04 01:13 46.42317 18.53250 33127 ft 488 kts 97°
2026-05-04 01:14 46.41027 18.62900 33127 ft 489 kts 97°
2026-05-04 01:14 46.39731 18.72536 33130 ft 488 kts 97°
2026-05-04 01:15 46.38430 18.82137 33131 ft 488 kts 97°
2026-05-04 01:15 46.37129 18.91679 33133 ft 487 kts 97°
2026-05-04 01:16 46.35813 19.01267 33136 ft 487 kts 97°
2026-05-04 01:16 46.34492 19.10832 33136 ft 487 kts 97°
2026-05-04 01:17 46.33156 19.20434 33139 ft 486 kts 97°
2026-05-04 01:17 46.31821 19.29971 33146 ft 486 kts 97°
2026-05-04 01:18 46.30488 19.39436 33141 ft 485 kts 97°
2026-05-04 01:18 46.29133 19.48997 33143 ft 484 kts 97°
2026-05-04 01:19 46.27787 19.58428 33143 ft 483 kts 97°
2026-05-04 01:19 46.26421 19.67952 33145 ft 485 kts 98°
2026-05-04 01:20 46.25048 19.77448 33146 ft 483 kts 98°
2026-05-04 01:20 46.23675 19.86896 33157 ft 482 kts 98°
2026-05-04 01:21 46.22298 19.96312 33152 ft 482 kts 98°
2026-05-04 01:21 46.20911 20.05737 33148 ft 482 kts 98°
2026-05-04 01:22 46.19509 20.15213 33154 ft 482 kts 98°
2026-05-04 01:22 46.18113 20.24580 33155 ft 481 kts 98°
2026-05-04 01:23 46.16707 20.33963 33159 ft 481 kts 98°
2026-05-04 01:23 46.15092 20.43295 33159 ft 483 kts 102°
2026-05-04 01:24 46.13157 20.52520 33155 ft 482 kts 103°
2026-05-04 01:24 46.11209 20.61731 33157 ft 482 kts 103°
2026-05-04 01:25 46.09250 20.70937 33160 ft 483 kts 103°
2026-05-04 01:25 46.07288 20.80112 33164 ft 482 kts 103°
2026-05-04 01:26 46.05302 20.89359 33157 ft 481 kts 103°
2026-05-04 01:26 46.03331 20.98492 33161 ft 481 kts 103°
2026-05-04 01:27 46.01351 21.07624 33158 ft 480 kts 103°
2026-05-04 01:27 45.99362 21.16762 33157 ft 480 kts 103°
2026-05-04 01:28 45.97375 21.25847 33158 ft 479 kts 103°
2026-05-04 01:28 45.95365 21.34994 33159 ft 479 kts 103°
2026-05-04 01:29 45.93364 21.44066 33158 ft 479 kts 103°
2026-05-04 01:29 45.91360 21.53113 33161 ft 478 kts 103°
2026-05-04 01:30 45.89343 21.62177 33153 ft 478 kts 103°
2026-05-04 01:30 45.87318 21.71238 33160 ft 478 kts 103°
2026-05-04 01:31 45.85290 21.80276 33158 ft 477 kts 103°
2026-05-04 01:31 45.83261 21.89280 33158 ft 477 kts 103°
2026-05-04 01:32 45.81219 21.98303 33159 ft 477 kts 103°
2026-05-04 01:32 45.79169 22.07321 33161 ft 475 kts 103°
2026-05-04 01:33 45.77128 22.16270 33152 ft 477 kts 103°
2026-05-04 01:33 45.75063 22.25276 33156 ft 475 kts 103°
2026-05-04 01:34 45.73010 22.34200 33153 ft 475 kts 103°
2026-05-04 01:34 45.70948 22.43120 33162 ft 475 kts 103°
2026-05-04 01:35 45.68876 22.52052 33165 ft 473 kts 102°
2026-05-04 01:35 45.66811 22.60916 33159 ft 473 kts 102°
2026-05-04 01:36 45.64733 22.69796 33156 ft 472 kts 103°
2026-05-04 01:36 45.62650 22.78669 33154 ft 472 kts 103°
2026-05-04 01:37 45.60555 22.87551 33149 ft 472 kts 103°
2026-05-04 01:37 45.58461 22.96401 33148 ft 473 kts 103°
2026-05-04 01:38 45.56365 23.05213 33146 ft 471 kts 103°
2026-05-04 01:38 45.54256 23.14048 33149 ft 469 kts 103°
2026-05-04 01:39 45.52161 23.22795 33157 ft 471 kts 103°
2026-05-04 01:39 45.50033 23.31641 33155 ft 470 kts 103°
2026-05-04 01:40 45.47924 23.40376 33151 ft 470 kts 103°
2026-05-04 01:40 45.45794 23.49159 33147 ft 470 kts 102°
2026-05-04 01:41 45.43667 23.57896 33142 ft 468 kts 103°
2026-05-04 01:41 45.41537 23.66615 33142 ft 470 kts 103°
2026-05-04 01:42 45.39386 23.75384 33141 ft 468 kts 103°
2026-05-04 01:42 45.37246 23.84074 33143 ft 467 kts 103°
2026-05-04 01:43 45.35097 23.92769 33141 ft 467 kts 103°
2026-05-04 01:43 45.32949 24.01423 33140 ft 466 kts 103°
2026-05-04 01:44 45.30798 24.10062 33130 ft 467 kts 103°
2026-05-04 01:44 45.28643 24.18685 33136 ft 468 kts 103°
2026-05-04 01:45 45.26464 24.27363 33129 ft 464 kts 103°
2026-05-04 01:45 45.23217 24.40246 33129 ft 466 kts 103°
2026-05-04 01:46 45.21027 24.48887 33129 ft 465 kts 103°
2026-05-04 01:46 45.18852 24.57444 33113 ft 465 kts 103°
2026-05-04 01:47 45.16652 24.66066 33128 ft 466 kts 104°
2026-05-04 01:47 45.14446 24.74675 33124 ft 467 kts 104°
2026-05-04 01:48 45.12240 24.83254 33112 ft 466 kts 104°
2026-05-04 01:48 45.10015 24.91880 33139 ft 469 kts 104°
2026-05-04 01:49 45.07780 25.00505 33130 ft 466 kts 104°
2026-05-04 01:49 45.05547 25.09099 33122 ft 470 kts 105°
2026-05-04 01:50 45.03299 25.17710 33131 ft 467 kts 105°
2026-05-04 01:50 45.01048 25.26308 33128 ft 469 kts 105°
2026-05-04 01:51 44.98622 25.34749 33126 ft 468 kts 110°
2026-05-04 01:51 44.95761 25.43030 33120 ft 470 kts 111°
2026-05-04 01:52 44.92889 25.51265 33127 ft 469 kts 111°
2026-05-04 01:52 44.90009 25.59475 33129 ft 469 kts 111°
2026-05-04 01:53 44.87117 25.67688 33120 ft 468 kts 112°
2026-05-04 01:53 44.84227 25.75867 33116 ft 469 kts 112°
2026-05-04 01:54 44.81338 25.84011 33126 ft 468 kts 113°
2026-05-04 01:54 44.78432 25.92182 33126 ft 467 kts 113°
2026-05-04 01:55 44.75521 26.00339 33123 ft 469 kts 113°
2026-05-04 01:55 44.72608 26.08478 33124 ft 467 kts 113°
2026-05-04 01:56 44.69677 26.16642 33127 ft 466 kts 114°
2026-05-04 01:56 44.66775 26.24701 33128 ft 465 kts 114°
2026-05-04 01:57 44.63862 26.32767 33125 ft 465 kts 114°
2026-05-04 01:57 44.60934 26.40851 33125 ft 463 kts 114°
2026-05-04 01:58 44.58024 26.48863 33125 ft 465 kts 114°
2026-05-04 01:58 44.55086 26.56927 33124 ft 463 kts 115°
2026-05-04 01:59 44.52163 26.64926 33117 ft 463 kts 115°
2026-05-04 01:59 44.49245 26.72887 33120 ft 464 kts 115°
2026-05-04 02:00 44.46301 26.80896 33121 ft 463 kts 115°
2026-05-04 02:00 44.43356 26.88888 33123 ft 463 kts 116°
2026-05-04 02:01 44.40420 26.96829 33111 ft 462 kts 115°
2026-05-04 02:01 44.37479 27.04762 33121 ft 462 kts 116°
2026-05-04 02:02 44.34527 27.12702 33113 ft 461 kts 116°
2026-05-04 02:02 44.31567 27.20639 33113 ft 460 kts 116°
2026-05-04 02:03 44.28624 27.28510 33114 ft 461 kts 116°
2026-05-04 02:03 44.25681 27.36357 33114 ft 458 kts 116°
2026-05-04 02:04 44.22723 27.44222 33106 ft 460 kts 116°
2026-05-04 02:04 44.19751 27.52103 33099 ft 458 kts 117°
2026-05-04 02:05 44.16814 27.59869 33101 ft 457 kts 117°
2026-05-04 02:05 44.13844 27.67701 33104 ft 458 kts 118°
2026-05-04 02:06 44.10880 27.75494 33092 ft 456 kts 118°
2026-05-04 02:06 44.07904 27.83297 33090 ft 457 kts 118°
2026-05-04 02:07 44.04927 27.91081 33103 ft 456 kts 118°
2026-05-04 02:07 44.01967 27.98801 33089 ft 456 kts 118°
2026-05-04 02:08 43.98974 28.06583 33093 ft 456 kts 118°
2026-05-04 02:08 43.96008 28.14273 33080 ft 455 kts 119°
2026-05-04 02:09 43.93021 28.21999 33068 ft 453 kts 119°
2026-05-04 02:09 43.90033 28.29705 33065 ft 456 kts 119°
2026-05-04 02:10 43.87046 28.37388 33072 ft 454 kts 119°
2026-05-04 02:10 43.84054 28.45061 33062 ft 452 kts 119°
2026-05-04 02:11 43.81062 28.52715 33063 ft 454 kts 119°
2026-05-04 02:11 43.78073 28.60339 33060 ft 453 kts 119°
2026-05-04 02:12 43.75071 28.67979 33059 ft 452 kts 120°
2026-05-04 02:12 43.72060 28.75617 33062 ft 453 kts 120°
2026-05-04 02:13 43.68829 28.82974 33062 ft 452 kts 127°
2026-05-04 02:13 43.65168 28.90037 33050 ft 451 kts 127°
2026-05-04 02:14 43.61518 28.97029 33044 ft 453 kts 127°
2026-05-04 02:14 43.57843 29.04041 33038 ft 451 kts 127°
2026-05-04 02:15 43.54169 29.11030 33037 ft 450 kts 127°
2026-05-04 02:15 43.50509 29.17972 33032 ft 449 kts 127°
2026-05-04 02:16 43.46847 29.24899 33020 ft 447 kts 127°
2026-05-04 02:16 43.43213 29.31758 33021 ft 449 kts 127°
2026-05-04 02:17 43.39549 29.38656 33013 ft 446 kts 127°
2026-05-04 02:17 43.35891 29.45527 33005 ft 444 kts 127°
2026-05-04 02:18 43.32272 29.52307 33005 ft 443 kts 127°
2026-05-04 02:18 43.28625 29.59124 33001 ft 443 kts 127°
2026-05-04 02:19 43.25007 29.65874 32998 ft 442 kts 128°
2026-05-04 02:19 43.21372 29.72639 32998 ft 440 kts 128°
2026-05-04 02:20 43.17749 29.79366 32983 ft 439 kts 128°
2026-05-04 02:20 43.14131 29.86067 32986 ft 436 kts 127°
2026-05-04 02:21 43.10528 29.92726 32975 ft 436 kts 127°
2026-05-04 02:21 43.06942 29.99340 32976 ft 434 kts 127°
2026-05-04 02:22 43.03360 30.05932 32975 ft 434 kts 127°
2026-05-04 02:22 42.99751 30.12557 32966 ft 433 kts 127°
2026-05-04 02:23 42.96182 30.19096 32961 ft 433 kts 127°
2026-05-04 02:23 42.92574 30.25690 32959 ft 434 kts 127°
2026-05-04 02:24 42.88968 30.32266 32956 ft 431 kts 127°
2026-05-04 02:24 42.85360 30.38833 32962 ft 435 kts 127°
2026-05-04 02:25 42.81757 30.45375 32957 ft 434 kts 127°
2026-05-04 02:25 42.78139 30.51929 32954 ft 433 kts 126°
2026-05-04 02:26 42.74913 30.58773 32942 ft 434 kts 116°
2026-05-04 02:26 42.73070 30.66583 32931 ft 437 kts 102°
2026-05-04 02:27 42.72270 30.74744 32933 ft 439 kts 100°
2026-05-04 02:27 42.71482 30.82942 32932 ft 436 kts 100°
2026-05-04 02:28 42.70670 30.91083 32930 ft 438 kts 101°
2026-05-04 02:28 42.69840 30.99233 32926 ft 435 kts 100°
2026-05-04 02:29 42.69004 31.07327 32918 ft 437 kts 101°
2026-05-04 02:29 42.68156 31.15455 32910 ft 433 kts 101°
2026-05-04 02:30 42.67305 31.23537 32906 ft 435 kts 100°
2026-05-04 02:30 42.66444 31.31648 32899 ft 434 kts 101°
2026-05-04 02:31 42.65584 31.39696 32900 ft 432 kts 101°
2026-05-04 02:31 42.64718 31.47745 32895 ft 430 kts 101°
2026-05-04 02:32 42.63851 31.55734 32886 ft 433 kts 101°
2026-05-04 02:32 42.62976 31.63758 32874 ft 429 kts 101°
2026-05-04 02:33 42.62094 31.71788 32888 ft 430 kts 102°
2026-05-04 02:33 42.61210 31.79776 32887 ft 428 kts 101°
2026-05-04 02:34 42.60321 31.87762 32873 ft 433 kts 102°
2026-05-04 02:34 42.59427 31.95747 32869 ft 425 kts 101°
2026-05-04 02:35 42.58537 32.03657 32870 ft 431 kts 101°
2026-05-04 02:35 42.57639 32.11692 32877 ft 428 kts 102°
2026-05-04 02:36 42.56729 32.19653 32866 ft 430 kts 101°
2026-05-04 02:36 42.55815 32.27606 32858 ft 427 kts 101°
2026-05-04 02:37 42.54893 32.35573 32848 ft 433 kts 101°
2026-05-04 02:37 42.53969 32.43515 32854 ft 426 kts 101°
2026-05-04 02:38 42.53035 32.51482 32840 ft 431 kts 101°
2026-05-04 02:38 42.52097 32.59444 32841 ft 429 kts 101°
2026-05-04 02:39 42.51150 32.67432 32851 ft 430 kts 102°
2026-05-04 02:39 42.50198 32.75409 32846 ft 429 kts 102°
2026-05-04 02:40 42.49241 32.83382 32849 ft 431 kts 102°
2026-05-04 02:40 42.48283 32.91317 32845 ft 430 kts 101°
2026-05-04 02:41 42.47310 32.99323 32844 ft 432 kts 101°
2026-05-04 02:41 42.46338 33.07279 32833 ft 429 kts 102°
2026-05-04 02:42 42.45358 33.15242 32832 ft 431 kts 101°
2026-05-04 02:42 42.44373 33.23197 32827 ft 429 kts 101°
2026-05-04 02:43 42.43377 33.31188 32824 ft 431 kts 102°
2026-05-04 02:43 42.42383 33.39121 32826 ft 430 kts 102°
2026-05-04 02:44 42.41377 33.47099 32829 ft 430 kts 101°
2026-05-04 02:44 42.40371 33.55048 32807 ft 431 kts 101°
2026-05-04 02:45 42.39358 33.62997 32809 ft 431 kts 101°
2026-05-04 02:45 42.38338 33.70961 32818 ft 428 kts 102°
2026-05-04 02:46 42.37318 33.78875 32819 ft 431 kts 102°
2026-05-04 02:46 42.36287 33.86832 32807 ft 430 kts 102°
2026-05-04 02:47 42.35254 33.94776 32807 ft 429 kts 102°
2026-05-04 02:47 42.34216 34.02723 32801 ft 431 kts 102°
2026-05-04 02:48 42.33168 34.10708 32796 ft 431 kts 102°
2026-05-04 02:48 42.32122 34.18626 32795 ft 431 kts 102°
2026-05-04 02:49 42.31061 34.26620 32796 ft 432 kts 102°
2026-05-04 02:49 42.30004 34.34535 32794 ft 433 kts 102°
2026-05-04 02:50 42.28927 34.42556 32789 ft 434 kts 102°
2026-05-04 02:50 42.27849 34.50529 32793 ft 433 kts 102°
2026-05-04 02:51 42.26764 34.58512 32788 ft 435 kts 102°
2026-05-04 02:51 42.25669 34.66525 32788 ft 434 kts 103°
2026-05-04 02:52 42.24579 34.74458 32791 ft 434 kts 102°
2026-05-04 02:52 42.23470 34.82481 32779 ft 436 kts 103°
2026-05-04 02:53 42.22355 34.90485 32784 ft 435 kts 103°
2026-05-04 02:53 42.21236 34.98474 32773 ft 435 kts 102°
2026-05-04 02:54 42.20110 35.06474 32769 ft 439 kts 102°
2026-05-04 02:54 42.18970 35.14532 32770 ft 436 kts 103°
2026-05-04 02:55 42.17267 35.26493 32766 ft 438 kts 103°
2026-05-04 02:56 42.16112 35.34552 32772 ft 437 kts 103°
2026-05-04 02:56 42.14960 35.42545 32758 ft 437 kts 103°
2026-05-04 02:57 42.13795 35.50606 32759 ft 439 kts 103°
2026-05-04 02:57 42.12638 35.58573 32761 ft 437 kts 103°
2026-05-04 02:58 42.11463 35.66626 32766 ft 439 kts 104°
2026-05-04 02:58 42.10286 35.74646 32764 ft 439 kts 104°
2026-05-04 02:59 42.09097 35.82709 32762 ft 440 kts 104°
2026-05-04 02:59 42.07903 35.90770 32758 ft 440 kts 104°
2026-05-04 03:00 42.06709 35.98781 32760 ft 441 kts 104°
2026-05-04 03:00 42.05499 36.06860 32755 ft 441 kts 104°
2026-05-04 03:01 42.04282 36.14952 32767 ft 442 kts 104°
2026-05-04 03:01 42.03068 36.22971 32749 ft 442 kts 104°
2026-05-04 03:02 42.01838 36.31065 32753 ft 442 kts 104°
2026-05-04 03:02 42.00606 36.39129 32752 ft 442 kts 104°
2026-05-04 03:03 41.99363 36.47229 32767 ft 444 kts 104°
2026-05-04 03:03 41.98124 36.55259 32753 ft 443 kts 104°
2026-05-04 03:04 41.96869 36.63351 32755 ft 442 kts 104°
2026-05-04 03:04 41.95609 36.71436 32765 ft 444 kts 104°
2026-05-04 03:05 41.94342 36.79526 32770 ft 445 kts 105°
2026-05-04 03:05 41.93073 36.87593 32765 ft 445 kts 105°
2026-05-04 03:06 41.91792 36.95696 32767 ft 446 kts 104°
2026-05-04 03:06 41.90440 37.03754 32761 ft 442 kts 109°
2026-05-04 03:07 41.88193 37.11464 32773 ft 444 kts 115°
2026-05-04 03:07 41.85821 37.19047 32781 ft 443 kts 115°
2026-05-04 03:08 41.83433 37.26639 32778 ft 444 kts 115°
2026-05-04 03:08 41.81040 37.34219 32781 ft 446 kts 115°
2026-05-04 03:09 41.78633 37.41817 32771 ft 444 kts 115°
2026-05-04 03:09 41.76207 37.49452 32781 ft 446 kts 115°
2026-05-04 03:10 41.73788 37.57039 32758 ft 445 kts 115°
2026-05-04 03:10 41.71342 37.64691 32765 ft 448 kts 115°
2026-05-04 03:11 41.68897 37.72325 32774 ft 447 kts 116°
2026-05-04 03:11 41.66461 37.79906 32773 ft 449 kts 116°
2026-05-04 03:12 41.64001 37.87543 32765 ft 449 kts 116°
2026-05-04 03:12 41.61519 37.95228 32768 ft 449 kts 116°
2026-05-04 03:13 41.59051 38.02846 32778 ft 451 kts 116°
2026-05-04 03:13 41.56574 38.10473 32772 ft 448 kts 117°
2026-05-04 03:14 41.54080 38.18127 32766 ft 451 kts 117°
2026-05-04 03:14 41.51578 38.25786 32769 ft 450 kts 116°
2026-05-04 03:15 41.49081 38.33410 32768 ft 451 kts 117°
2026-05-04 03:15 41.46571 38.41051 32776 ft 451 kts 116°
2026-05-04 03:16 41.44062 38.48667 32764 ft 450 kts 117°
2026-05-04 03:16 41.41553 38.56259 32780 ft 452 kts 117°
2026-05-04 03:17 41.39023 38.63898 32777 ft 453 kts 117°
2026-05-04 03:17 41.36489 38.71526 32774 ft 450 kts 117°
2026-05-04 03:18 41.33943 38.79171 32780 ft 452 kts 117°
2026-05-04 03:18 41.31457 38.86763 32784 ft 453 kts 117°
2026-05-04 03:19 41.28951 38.94431 32779 ft 451 kts 117°
2026-05-04 03:19 41.26452 39.02050 32772 ft 452 kts 117°
2026-05-04 03:20 41.23937 39.09691 32772 ft 453 kts 117°
2026-05-04 03:20 41.21417 39.17327 32771 ft 453 kts 117°
2026-05-04 03:21 41.18793 39.24903 32766 ft 453 kts 118°
2026-05-04 03:21 41.16129 39.32504 32758 ft 454 kts 118°
2026-05-04 03:22 41.13473 39.40076 32758 ft 455 kts 118°
2026-05-04 03:22 41.10827 39.47607 32761 ft 455 kts 118°
2026-05-04 03:23 41.08161 39.55179 32760 ft 453 kts 118°
2026-05-04 03:23 41.05479 39.62777 32757 ft 454 kts 118°
2026-05-04 03:24 41.02811 39.70312 32762 ft 454 kts 118°
2026-05-04 03:24 41.00323 39.78036 32758 ft 460 kts 110°
2026-05-04 03:25 40.99325 39.86427 32771 ft 472 kts 97°
2026-05-04 03:25 40.99134 39.95026 32758 ft 469 kts 96°
2026-05-04 03:26 40.98937 40.03697 32755 ft 471 kts 96°
2026-05-04 03:26 40.98730 40.12291 32756 ft 469 kts 96°
2026-05-04 03:27 40.98511 40.20907 32754 ft 469 kts 96°
2026-05-04 03:27 40.98280 40.29519 32746 ft 472 kts 96°
2026-05-04 03:28 40.98040 40.38190 32752 ft 473 kts 96°
2026-05-04 03:28 40.97797 40.46787 32742 ft 470 kts 96°
2026-05-04 03:29 40.97541 40.55491 32746 ft 475 kts 96°
2026-05-04 03:29 40.97284 40.64103 32751 ft 472 kts 96°
2026-05-04 03:30 40.97016 40.72809 32747 ft 473 kts 97°
2026-05-04 03:30 40.96744 40.81454 32743 ft 472 kts 97°
2026-05-04 03:31 40.96464 40.90134 32762 ft 473 kts 97°
2026-05-04 03:31 40.96178 40.98759 32793 ft 475 kts 97°
2026-05-04 03:32 40.95884 41.07470 32815 ft 473 kts 97°
2026-05-04 03:32 40.95585 41.16144 32856 ft 473 kts 97°
2026-05-04 03:33 40.95277 41.24853 32885 ft 475 kts 97°
2026-05-04 03:33 40.94961 41.33586 32899 ft 477 kts 97°
2026-05-04 03:34 40.94642 41.42291 32866 ft 476 kts 97°
2026-05-04 03:34 40.94310 41.51083 32856 ft 479 kts 97°
2026-05-04 03:35 40.93976 41.59805 32847 ft 478 kts 97°
2026-05-04 03:35 40.93631 41.68622 32851 ft 480 kts 98°
2026-05-04 03:36 40.93283 41.77375 32843 ft 478 kts 98°
2026-05-04 03:36 40.92925 41.86144 32877 ft 481 kts 98°
2026-05-04 03:37 40.92561 41.94953 32893 ft 482 kts 98°
2026-05-04 03:37 40.92189 42.03773 32875 ft 481 kts 98°
2026-05-04 03:38 40.91809 42.12631 32901 ft 486 kts 98°
2026-05-04 03:38 40.91421 42.21510 32908 ft 485 kts 98°
2026-05-04 03:39 40.91026 42.30390 32922 ft 485 kts 98°
2026-05-04 03:39 40.90626 42.39242 32935 ft 486 kts 98°
2026-05-04 03:40 40.90218 42.48098 32941 ft 487 kts 98°
2026-05-04 03:40 40.89799 42.57052 32966 ft 489 kts 98°
2026-05-04 03:41 40.89377 42.65933 32964 ft 487 kts 98°
2026-05-04 03:41 40.88943 42.74885 32978 ft 490 kts 98°
2026-05-04 03:42 40.88506 42.83804 32976 ft 489 kts 98°
2026-05-04 03:42 40.88056 42.92812 32989 ft 489 kts 98°
2026-05-04 03:43 40.87606 43.01699 32983 ft 491 kts 98°
2026-05-04 03:43 40.87144 43.10675 32994 ft 491 kts 98°
2026-05-04 03:44 40.86676 43.19627 32992 ft 490 kts 98°
2026-05-04 03:44 40.86198 43.28639 33007 ft 494 kts 98°
2026-05-04 03:45 40.85714 43.37634 32994 ft 491 kts 98°
2026-05-04 03:45 40.85223 43.46623 32991 ft 495 kts 98°
2026-05-04 03:46 40.84724 43.55650 32992 ft 493 kts 98°
2026-05-04 03:46 40.84218 43.64643 32993 ft 496 kts 98°
2026-05-04 03:47 40.83783 43.73739 32970 ft 497 kts 96°
2026-05-04 03:47 40.83510 43.82814 32966 ft 495 kts 96°
2026-05-04 03:48 40.83224 43.91880 32959 ft 497 kts 96°
2026-05-04 03:48 40.82924 44.00948 32964 ft 497 kts 96°
2026-05-04 03:49 40.82613 44.10073 32982 ft 498 kts 96°
2026-05-04 03:49 40.82294 44.19148 33005 ft 499 kts 96°
2026-05-04 03:50 40.81963 44.28316 33013 ft 501 kts 96°
2026-05-04 03:50 40.81627 44.37422 33026 ft 500 kts 96°
2026-05-04 03:51 40.81281 44.46596 33033 ft 502 kts 96°
2026-05-04 03:51 40.80928 44.55754 33019 ft 504 kts 96°
2026-05-04 03:52 40.80567 44.64938 33016 ft 504 kts 96°
2026-05-04 03:52 40.80195 44.74200 33010 ft 504 kts 97°
2026-05-04 03:53 40.79818 44.83409 33005 ft 506 kts 97°
2026-05-04 03:53 40.79431 44.92657 33007 ft 506 kts 97°
2026-05-04 03:54 40.79036 45.01938 33013 ft 508 kts 97°
2026-05-04 03:54 40.78633 45.11231 32995 ft 508 kts 97°
2026-05-04 03:55 40.78223 45.20520 33015 ft 511 kts 97°
2026-05-04 03:55 40.77804 45.29829 33030 ft 510 kts 97°
2026-05-04 03:56 40.77380 45.39104 33024 ft 510 kts 97°
2026-05-04 03:56 40.76942 45.48470 33010 ft 514 kts 97°
2026-05-04 03:57 40.76276 45.57733 33007 ft 510 kts 101°
2026-05-04 03:57 40.75406 45.66989 33015 ft 512 kts 101°
2026-05-04 03:58 40.74113 45.80895 33021 ft 512 kts 101°
2026-05-04 03:58 40.73248 45.90208 33003 ft 511 kts 101°
2026-05-04 03:59 40.72381 45.99491 32984 ft 514 kts 101°
2026-05-04 03:59 40.71511 46.08751 32989 ft 514 kts 101°
2026-05-04 04:00 40.70631 46.18057 32980 ft 513 kts 101°
2026-05-04 04:00 40.69738 46.27417 32977 ft 513 kts 100°
2026-05-04 04:01 40.68840 46.36744 32978 ft 516 kts 100°
2026-05-04 04:01 40.67942 46.46013 32974 ft 513 kts 100°
2026-05-04 04:02 40.67027 46.55371 32983 ft 516 kts 100°
2026-05-04 04:02 40.66110 46.64671 32982 ft 515 kts 100°
2026-05-04 04:03 40.65181 46.74012 32976 ft 515 kts 101°
2026-05-04 04:03 40.64243 46.83355 32978 ft 516 kts 101°
2026-05-04 04:04 40.63308 46.92606 32980 ft 516 kts 101°
2026-05-04 04:04 40.62358 47.01929 32978 ft 516 kts 101°
2026-05-04 04:05 40.61398 47.11271 32978 ft 516 kts 101°
2026-05-04 04:05 40.60452 47.20583 32974 ft 518 kts 98°
2026-05-04 04:06 40.60186 47.30045 32982 ft 518 kts 94°
2026-05-04 04:06 40.59985 47.39530 32979 ft 520 kts 94°
2026-05-04 04:07 40.59745 47.49004 32981 ft 519 kts 94°
2026-05-04 04:07 40.59481 47.58484 32979 ft 520 kts 94°
2026-05-04 04:08 40.59199 47.67967 32975 ft 520 kts 95°
2026-05-04 04:08 40.58905 47.77403 32975 ft 520 kts 95°
2026-05-04 04:09 40.58602 47.86818 32974 ft 520 kts 95°
2026-05-04 04:09 40.58284 47.96319 32975 ft 521 kts 96°
2026-05-04 04:10 40.57868 48.05839 32979 ft 521 kts 96°
2026-05-04 04:10 40.57436 48.15303 32978 ft 524 kts 96°
2026-05-04 04:11 40.56997 48.24802 32975 ft 524 kts 96°
2026-05-04 04:11 40.56549 48.34360 32982 ft 525 kts 96°
2026-05-04 04:12 40.56095 48.43912 32986 ft 526 kts 96°
2026-05-04 04:12 40.55632 48.53476 32984 ft 528 kts 96°
2026-05-04 04:13 40.55159 48.63084 32988 ft 528 kts 96°
2026-05-04 04:13 40.54678 48.72713 32981 ft 530 kts 97°
2026-05-04 04:14 40.54187 48.82361 32975 ft 532 kts 96°
2026-05-04 04:14 40.53688 48.92022 32966 ft 530 kts 96°
2026-05-04 04:15 40.53177 49.01745 32971 ft 534 kts 96°
2026-05-04 04:15 40.52663 49.11385 32962 ft 533 kts 97°
2026-05-04 04:16 40.52136 49.21111 32975 ft 535 kts 96°
2026-05-04 04:16 40.51601 49.30820 32986 ft 534 kts 96°
2026-05-04 04:17 40.51058 49.40541 32987 ft 536 kts 96°
2026-05-04 04:17 40.50509 49.50238 33004 ft 536 kts 96°
2026-05-04 04:18 40.49949 49.59985 32997 ft 535 kts 96°
2026-05-04 04:18 40.49383 49.69694 32984 ft 536 kts 97°
2026-05-04 04:19 40.48808 49.79422 32992 ft 537 kts 97°
2026-05-04 04:19 40.48222 49.89173 32996 ft 538 kts 97°
2026-05-04 04:20 40.47626 49.98971 33002 ft 537 kts 97°
2026-05-04 04:20 40.46782 50.08672 33007 ft 536 kts 102°
2026-05-04 04:21 40.45508 50.18254 33005 ft 536 kts 102°
2026-05-04 04:21 40.44221 50.27818 33010 ft 536 kts 102°
2026-05-04 04:22 40.42924 50.37415 33008 ft 536 kts 102°
2026-05-04 04:22 40.41616 50.47030 33006 ft 535 kts 102°
2026-05-04 04:23 40.40306 50.56608 33018 ft 537 kts 102°
2026-05-04 04:23 40.38983 50.66220 33007 ft 537 kts 103°
2026-05-04 04:24 40.37659 50.75782 33007 ft 536 kts 103°
2026-05-04 04:24 40.36319 50.85398 32999 ft 537 kts 103°
2026-05-04 04:25 40.34975 50.94983 32991 ft 537 kts 103°
2026-05-04 04:25 40.33626 51.04542 33000 ft 537 kts 103°
2026-05-04 04:26 40.32259 51.14170 32993 ft 538 kts 103°
2026-05-04 04:26 40.30895 51.23711 33004 ft 538 kts 103°
2026-05-04 04:27 40.29517 51.33297 32994 ft 537 kts 103°
2026-05-04 04:27 40.28124 51.42932 33003 ft 538 kts 103°
2026-05-04 04:28 40.26731 51.52505 33002 ft 538 kts 103°
2026-05-04 04:28 40.25330 51.62076 33001 ft 539 kts 103°
2026-05-04 04:29 40.23918 51.71664 32988 ft 538 kts 103°
2026-05-04 04:29 40.22499 51.81246 32991 ft 538 kts 103°
2026-05-04 04:30 40.21075 51.90808 32989 ft 538 kts 103°
2026-05-04 04:30 40.19639 52.00386 32998 ft 539 kts 103°
2026-05-04 04:31 40.18197 52.09953 32991 ft 537 kts 103°
2026-05-04 04:31 40.16746 52.19522 32994 ft 538 kts 103°
2026-05-04 04:32 40.15297 52.29023 32989 ft 537 kts 103°
2026-05-04 04:32 40.13826 52.38605 32977 ft 537 kts 103°
2026-05-04 04:33 40.12359 52.48115 32975 ft 536 kts 103°
2026-05-04 04:33 40.10874 52.57682 32983 ft 537 kts 103°
2026-05-04 04:34 40.09390 52.67189 32972 ft 536 kts 104°
2026-05-04 04:34 40.07903 52.76664 32964 ft 536 kts 104°
2026-05-04 04:35 40.06404 52.86158 32972 ft 537 kts 103°
2026-05-04 04:35 40.04897 52.95652 32971 ft 536 kts 103°
2026-05-04 04:36 40.03476 53.05150 32958 ft 537 kts 99°
2026-05-04 04:36 40.02568 53.14807 32968 ft 537 kts 98°
2026-05-04 04:37 40.00715 53.34023 32967 ft 538 kts 98°
2026-05-04 04:38 39.99748 53.43705 32961 ft 538 kts 98°
2026-05-04 04:38 39.98772 53.53320 32956 ft 537 kts 98°
2026-05-04 04:39 39.97786 53.62924 32958 ft 538 kts 98°
2026-05-04 04:39 39.96791 53.72507 32953 ft 538 kts 98°
2026-05-04 04:40 39.95785 53.82119 32954 ft 537 kts 99°
2026-05-04 04:40 39.94766 53.91764 32960 ft 538 kts 98°
2026-05-04 04:41 39.93744 54.01359 32967 ft 538 kts 98°
2026-05-04 04:41 39.92707 54.11003 32970 ft 537 kts 98°
2026-05-04 04:42 39.91669 54.20592 32968 ft 537 kts 98°
2026-05-04 04:42 39.90620 54.30195 32973 ft 536 kts 98°
2026-05-04 04:43 39.89567 54.39768 32981 ft 536 kts 98°
2026-05-04 04:43 39.88081 54.49204 32993 ft 536 kts 106°
2026-05-04 04:44 39.86107 54.58548 33000 ft 535 kts 106°
2026-05-04 04:44 39.84128 54.67841 32991 ft 535 kts 107°
2026-05-04 04:45 39.82140 54.77132 32984 ft 534 kts 107°
2026-05-04 04:47 39.75177 55.09610 32980 ft 534 kts 106°
2026-05-04 04:47 39.73178 55.18844 32976 ft 535 kts 106°
2026-05-04 04:48 39.71172 55.28072 32984 ft 533 kts 106°
2026-05-04 04:49 39.66102 55.51163 32977 ft 532 kts 106°
2026-05-04 04:49 39.64066 55.60352 32984 ft 531 kts 106°
2026-05-04 04:50 39.62028 55.69515 32976 ft 531 kts 107°
2026-05-04 04:50 39.59985 55.78663 32977 ft 530 kts 107°
2026-05-04 04:51 39.57940 55.87779 32975 ft 530 kts 107°
2026-05-04 04:51 39.55897 55.96911 32975 ft 528 kts 107°
2026-05-04 04:52 39.53862 56.06018 32979 ft 529 kts 107°
2026-05-04 04:52 39.51811 56.15151 32979 ft 528 kts 107°
2026-05-04 04:53 39.49773 56.24191 32979 ft 527 kts 106°
2026-05-04 04:53 39.47713 56.33287 32977 ft 527 kts 106°
2026-05-04 04:54 39.45651 56.42357 32973 ft 526 kts 106°
2026-05-04 04:54 39.43584 56.51416 32981 ft 527 kts 106°
2026-05-04 04:55 39.41529 56.60381 32978 ft 524 kts 106°
2026-05-04 04:55 39.39452 56.69409 32972 ft 525 kts 107°
2026-05-04 04:56 39.37374 56.78403 32974 ft 525 kts 107°
2026-05-04 04:56 39.35191 56.87340 32973 ft 523 kts 109°
2026-05-04 04:57 39.32888 56.96254 32975 ft 523 kts 108°
2026-05-04 04:57 39.30595 57.05126 32970 ft 523 kts 108°
2026-05-04 04:58 39.28287 57.14041 32975 ft 523 kts 108°
2026-05-04 04:58 39.25996 57.22871 32980 ft 523 kts 108°
2026-05-04 04:59 39.23691 57.31731 32980 ft 522 kts 108°
2026-05-04 04:59 39.21375 57.40602 32978 ft 523 kts 108°
2026-05-04 05:00 39.19055 57.49461 32991 ft 521 kts 108°
2026-05-04 05:01 39.15576 57.62686 32994 ft 522 kts 108°
2026-05-04 05:01 39.13248 57.71496 32986 ft 521 kts 109°
2026-05-04 05:02 39.10916 57.80292 32996 ft 521 kts 109°
2026-05-04 05:02 39.08577 57.89087 33001 ft 519 kts 109°
2026-05-04 05:03 39.06243 57.97830 33005 ft 520 kts 109°
2026-05-04 05:04 39.01553 58.15308 33013 ft 519 kts 109°
2026-05-04 05:04 38.99190 58.24066 33008 ft 518 kts 109°
2026-05-04 05:06 38.89725 58.58859 33019 ft 518 kts 109°
2026-05-04 05:07 38.86877 58.67277 33011 ft 516 kts 116°
2026-05-04 05:07 38.83664 58.75507 33012 ft 516 kts 117°
2026-05-04 05:09 38.69149 59.12343 33018 ft 516 kts 117°
2026-05-04 05:10 38.65902 59.20520 33016 ft 515 kts 116°
2026-05-04 05:10 38.62653 59.28682 33017 ft 516 kts 116°
2026-05-04 05:11 38.59409 59.36811 33018 ft 517 kts 116°
2026-05-04 05:11 38.56316 59.45067 33017 ft 516 kts 115°
2026-05-04 05:12 38.53266 59.53338 33017 ft 516 kts 115°
2026-05-04 05:12 38.50198 59.61611 33028 ft 517 kts 115°
2026-05-04 05:13 38.47126 59.69861 33018 ft 517 kts 115°
2026-05-04 05:13 38.44057 59.78072 33020 ft 516 kts 115°
2026-05-04 05:14 38.40961 59.86329 33020 ft 518 kts 115°
2026-05-04 05:14 38.37867 59.94555 33022 ft 516 kts 115°
2026-05-04 05:15 38.34761 60.02791 33026 ft 517 kts 115°
2026-05-04 05:15 38.31661 60.10987 33022 ft 516 kts 115°
2026-05-04 05:16 38.28545 60.19203 33024 ft 516 kts 115°
2026-05-04 05:16 38.25418 60.27426 33027 ft 516 kts 115°
2026-05-04 05:17 38.22293 60.35620 33027 ft 516 kts 116°
2026-05-04 05:17 38.19176 60.43775 33032 ft 514 kts 115°
2026-05-04 05:18 38.16036 60.51966 33035 ft 515 kts 115°
2026-05-04 05:18 38.12918 60.60076 33032 ft 516 kts 115°
2026-05-04 05:19 38.09770 60.68245 33024 ft 516 kts 116°
2026-05-04 05:19 38.06623 60.76387 33025 ft 514 kts 116°
2026-05-04 05:20 38.03490 60.84473 33030 ft 513 kts 116°
2026-05-04 05:20 38.00339 60.92584 33032 ft 514 kts 116°
2026-05-04 05:21 37.97194 61.00661 33029 ft 513 kts 116°
2026-05-04 05:21 37.94025 61.08775 33035 ft 514 kts 116°
2026-05-04 05:22 37.90873 61.16825 33038 ft 514 kts 116°
2026-05-04 05:22 37.87691 61.24930 33036 ft 513 kts 116°
2026-05-04 05:23 37.84523 61.32982 33035 ft 514 kts 116°
2026-05-04 05:23 37.81344 61.41037 33038 ft 514 kts 116°
2026-05-04 05:24 37.78156 61.49095 33042 ft 513 kts 116°
2026-05-04 05:24 37.74970 61.57130 33045 ft 513 kts 116°
2026-05-04 05:25 37.71774 61.65165 33056 ft 513 kts 117°
2026-05-04 05:25 37.68577 61.73183 33043 ft 513 kts 117°
2026-05-04 05:26 37.65356 61.81242 33045 ft 513 kts 117°
2026-05-04 05:26 37.62037 61.89162 33049 ft 514 kts 123°
2026-05-04 05:28 37.45221 62.18031 33055 ft 514 kts 127°
2026-05-04 05:29 37.40968 62.25234 33057 ft 513 kts 127°
2026-05-04 05:29 37.36715 62.32419 33056 ft 514 kts 127°
2026-05-04 05:31 37.19656 62.61079 33063 ft 514 kts 127°
2026-05-04 05:32 37.15361 62.68255 33063 ft 514 kts 127°
2026-05-04 05:33 37.08926 62.78979 33064 ft 513 kts 127°
2026-05-04 05:33 37.04642 62.86100 33070 ft 513 kts 127°
2026-05-04 05:34 37.00370 62.93183 33069 ft 514 kts 127°
2026-05-04 05:34 36.96068 63.00304 33077 ft 515 kts 127°
2026-05-04 05:35 36.91771 63.07401 33080 ft 516 kts 127°
2026-05-04 05:35 36.87439 63.14541 33070 ft 515 kts 127°
2026-05-04 05:36 36.83099 63.21678 33077 ft 516 kts 127°
2026-05-04 05:36 36.78763 63.28794 33078 ft 518 kts 127°
2026-05-04 05:37 36.74409 63.35924 33082 ft 519 kts 127°
2026-05-04 05:37 36.70026 63.43087 33088 ft 519 kts 127°
2026-05-04 05:38 36.63465 63.53780 33096 ft 519 kts 127°
2026-05-04 05:38 36.59099 63.60878 33098 ft 520 kts 127°
2026-05-04 05:39 36.56274 63.65461 33105 ft 522 kts 127°
2026-05-04 07:41 36.55754 63.66305 33100 ft 522 kts 127°
2026-05-04 07:41 36.51329 63.73472 33105 ft 533 kts 127°
2026-05-04 07:42 36.46764 63.80850 33113 ft 547 kts 127°
2026-05-04 07:42 36.42113 63.88349 33119 ft 547 kts 127°
2026-05-04 07:43 36.37462 63.95833 33117 ft 548 kts 127°
2026-05-04 07:43 36.32780 64.03349 33581 ft 550 kts 127°
2026-05-04 07:44 36.30414 64.07142 34008 ft 548 kts 127°
2026-05-04 07:44 36.28104 64.10841 34304 ft 549 kts 127°
2026-05-04 07:44 36.25760 64.14589 34565 ft 550 kts 127°
2026-05-04 07:44 36.23430 64.18311 34798 ft 552 kts 127°
2026-05-04 07:45 36.21061 64.22092 35036 ft 553 kts 127°
2026-05-04 07:45 36.18716 64.25829 35097 ft 555 kts 127°
2026-05-04 07:45 36.14051 64.33405 35109 ft 555 kts 125°
2026-05-04 07:46 36.09516 64.41084 35113 ft 554 kts 125°
2026-05-04 07:46 36.04957 64.48776 35116 ft 556 kts 126°
2026-05-04 07:47 36.00407 64.56423 35129 ft 557 kts 125°
2026-05-04 07:49 35.81992 64.87159 35179 ft 557 kts 126°
2026-05-04 07:49 35.77396 64.94784 35208 ft 558 kts 126°
2026-05-04 07:50 35.72780 65.02425 35229 ft 557 kts 126°
2026-05-04 07:50 35.68142 65.10085 35249 ft 558 kts 126°
2026-05-04 07:51 35.63512 65.17715 35268 ft 558 kts 126°
2026-05-04 07:51 35.58870 65.25347 35305 ft 560 kts 126°
2026-05-04 07:52 35.54225 65.32967 35327 ft 560 kts 126°
2026-05-04 07:52 35.49575 65.40578 35337 ft 559 kts 126°
2026-05-04 07:54 35.30881 65.71016 35369 ft 560 kts 126°
2026-05-04 07:55 35.26204 65.78588 35375 ft 559 kts 126°
2026-05-04 07:55 35.21520 65.86156 35380 ft 560 kts 126°
2026-05-04 07:56 35.16808 65.93753 35370 ft 559 kts 126°
2026-05-04 07:56 35.12099 66.01331 35371 ft 560 kts 126°
2026-05-04 07:57 35.07408 66.08861 35377 ft 559 kts 126°
2026-05-04 07:57 35.02699 66.16404 35392 ft 560 kts 126°
2026-05-04 07:58 34.97986 66.23937 35417 ft 559 kts 126°
2026-05-04 07:58 34.93244 66.31454 35399 ft 561 kts 126°
2026-05-04 07:59 34.88476 66.38957 35387 ft 561 kts 127°
2026-05-04 07:59 34.83707 66.46445 35394 ft 560 kts 126°
2026-05-04 08:00 34.78959 66.53886 35388 ft 561 kts 126°
2026-05-04 08:02 34.59829 66.83718 35367 ft 560 kts 127°
2026-05-04 08:02 34.55029 66.91163 35366 ft 560 kts 127°
2026-05-04 08:03 34.52626 66.94884 35149 ft 560 kts 127°
2026-05-04 08:03 34.50235 66.98579 35330 ft 561 kts 127°
2026-05-04 08:03 34.45394 67.06045 35378 ft 562 kts 127°
2026-05-04 08:04 34.40581 67.13452 35372 ft 560 kts 127°
2026-05-04 08:04 34.35778 67.20829 35359 ft 561 kts 127°
2026-05-04 08:05 34.30952 67.28227 35356 ft 560 kts 127°
2026-05-04 08:05 34.26118 67.35620 35353 ft 560 kts 127°
2026-05-04 08:06 34.21279 67.43008 35334 ft 560 kts 127°
2026-05-04 08:06 34.16477 67.50324 35350 ft 560 kts 127°
2026-05-04 08:08 33.97088 67.79706 35347 ft 560 kts 128°
2026-05-04 08:11 33.75045 68.12331 35290 ft 560 kts 128°
2026-05-04 08:11 33.67689 68.23158 35294 ft 560 kts 128°
2026-05-04 08:12 33.62776 68.30370 35283 ft 557 kts 128°
2026-05-04 08:12 33.57852 68.37584 35277 ft 559 kts 128°
2026-05-04 08:13 33.52925 68.44740 35269 ft 559 kts 129°
2026-05-04 08:13 33.47878 68.51810 35264 ft 558 kts 129°
2026-05-04 08:14 33.42871 68.58808 35256 ft 559 kts 130°
2026-05-04 08:16 33.22972 68.87146 35257 ft 557 kts 127°
2026-05-04 08:16 33.18284 68.94501 35265 ft 555 kts 127°
2026-05-04 08:17 33.13580 69.01836 35271 ft 557 kts 127°
2026-05-04 08:17 33.08886 69.09120 35274 ft 554 kts 127°
2026-05-04 08:19 32.90095 69.38077 35228 ft 551 kts 128°
2026-05-04 08:20 32.85428 69.45225 35213 ft 551 kts 128°
2026-05-04 08:20 32.80708 69.52411 35196 ft 550 kts 128°
2026-05-04 08:21 32.76022 69.59531 35204 ft 549 kts 128°
2026-05-04 08:21 32.71306 69.66682 35212 ft 547 kts 128°
2026-05-04 08:22 32.66621 69.73774 35193 ft 548 kts 129°
2026-05-04 08:24 32.50198 69.98530 35019 ft 545 kts 129°
2026-05-04 08:24 32.47848 70.02058 34998 ft 544 kts 129°
2026-05-04 08:24 32.43177 70.09062 34957 ft 546 kts 129°
2026-05-04 08:25 32.38502 70.16060 34943 ft 543 kts 129°
2026-05-04 08:25 32.33872 70.23096 34927 ft 543 kts 128°
2026-05-04 08:27 32.15635 70.51269 34809 ft 537 kts 128°
2026-05-04 08:28 32.11096 70.58239 34782 ft 534 kts 129°
2026-05-04 08:28 32.06533 70.65232 34783 ft 536 kts 129°
2026-05-04 08:29 32.02011 70.72148 34760 ft 530 kts 129°
2026-05-04 08:31 31.85744 71.00787 34733 ft 529 kts 118°
2026-05-04 08:33 31.72016 71.31248 34725 ft 529 kts 119°
2026-05-04 08:35 31.58204 71.61610 34729 ft 529 kts 119°
2026-05-04 08:35 31.54739 71.69179 34720 ft 529 kts 120°
2026-05-04 08:37 31.42576 71.95628 34715 ft 528 kts 120°
2026-05-04 08:38 31.39085 72.03184 34713 ft 529 kts 120°
2026-05-04 08:38 31.35587 72.10742 34714 ft 527 kts 120°
2026-05-04 08:40 31.27676 72.38665 34702 ft 531 kts 85°
2026-05-04 08:40 31.28116 72.42959 34712 ft 532 kts 83°
2026-05-04 08:41 31.29086 72.51527 34717 ft 532 kts 83°
2026-05-04 08:41 31.30044 72.60049 34724 ft 531 kts 83°
2026-05-04 08:42 31.30991 72.68551 34702 ft 531 kts 84°
2026-05-04 08:42 31.31934 72.77083 34715 ft 530 kts 84°
2026-05-04 08:43 31.32870 72.85618 34731 ft 529 kts 84°
2026-05-04 08:43 31.33791 72.94074 34730 ft 528 kts 84°
2026-05-04 08:44 31.34713 73.02584 34730 ft 527 kts 84°
2026-05-04 08:46 31.38317 73.36391 34738 ft 523 kts 85°
2026-05-04 08:46 31.39205 73.44855 34752 ft 523 kts 85°
2026-05-04 08:47 31.40077 73.53225 34750 ft 521 kts 85°
2026-05-04 08:47 31.40948 73.61638 34752 ft 519 kts 85°
2026-05-04 08:48 31.41807 73.69980 34749 ft 518 kts 86°
2026-05-04 08:48 31.42656 73.78296 34752 ft 514 kts 86°
2026-05-04 08:49 31.43492 73.86558 34748 ft 513 kts 86°
2026-05-04 08:50 31.43222 74.11081 34752 ft 500 kts 105°
2026-05-04 08:50 31.42492 74.15003 34743 ft 500 kts 105°
2026-05-04 08:51 31.41003 74.22959 34748 ft 499 kts 105°
2026-05-04 08:51 31.39502 74.30938 34752 ft 500 kts 105°
2026-05-04 08:52 31.38013 74.38823 34751 ft 499 kts 105°
2026-05-04 08:52 31.36517 74.46717 34746 ft 500 kts 105°
2026-05-04 08:54 31.29387 74.77901 34763 ft 496 kts 109°
2026-05-04 08:55 31.27458 74.85588 34769 ft 496 kts 109°
2026-05-04 08:55 31.25520 74.93317 34782 ft 495 kts 109°
2026-05-04 09:01 31.03116 75.73838 34815 ft 502 kts 113°
2026-05-04 09:01 31.00578 75.81423 34815 ft 503 kts 113°
2026-05-04 09:02 30.98033 75.89011 34822 ft 506 kts 112°
2026-05-04 09:02 30.95461 75.96664 34824 ft 508 kts 113°
2026-05-04 09:03 30.92903 76.04259 34810 ft 507 kts 113°
2026-05-04 09:03 30.90329 76.11884 34816 ft 507 kts 113°
2026-05-04 09:04 30.87739 76.19539 34835 ft 508 kts 114°
2026-05-04 09:04 30.86443 76.23364 34945 ft 508 kts 113°
2026-05-04 09:04 30.85165 76.27131 34834 ft 504 kts 114°
2026-05-04 09:05 30.82565 76.34781 34849 ft 512 kts 114°
2026-05-04 09:05 30.79952 76.42451 34856 ft 515 kts 114°
2026-05-04 09:06 30.77315 76.50172 34854 ft 518 kts 114°
2026-05-04 09:07 30.67501 76.77465 34812 ft 524 kts 126°
2026-05-04 09:08 30.65424 76.80906 34826 ft 523 kts 130°
2026-05-04 09:08 30.61052 76.87664 34813 ft 521 kts 130°
2026-05-04 09:09 30.56689 76.94364 34835 ft 523 kts 130°
2026-05-04 09:09 30.52283 77.01114 34833 ft 525 kts 130°
2026-05-04 09:10 30.47888 77.07832 34842 ft 527 kts 130°
2026-05-04 09:10 30.43452 77.14593 34851 ft 525 kts 132°
2026-05-04 09:11 30.38241 77.20380 34834 ft 513 kts 149°
2026-05-04 09:11 30.32074 77.24419 34844 ft 509 kts 157°
2026-05-04 09:12 30.25759 77.28142 34825 ft 511 kts 157°
2026-05-04 09:14 30.00497 77.42886 34783 ft 509 kts 155°
2026-05-04 09:14 29.94668 77.47588 34802 ft 516 kts 147°
2026-05-04 09:15 29.89023 77.52669 34778 ft 516 kts 147°
2026-05-04 09:15 29.83349 77.57766 34791 ft 513 kts 146°
2026-05-04 09:17 29.57939 77.80480 34800 ft 513 kts 148°
2026-05-04 09:18 29.52283 77.85513 34786 ft 513 kts 148°
2026-05-04 09:18 29.46664 77.90507 34785 ft 513 kts 148°
2026-05-04 09:19 29.41031 77.95506 34767 ft 513 kts 148°
2026-05-04 09:19 29.35352 78.00538 34807 ft 513 kts 149°
2026-05-04 09:20 29.29698 78.05540 34790 ft 516 kts 149°
2026-05-04 09:20 29.24021 78.10555 34770 ft 516 kts 149°
2026-05-04 09:21 29.18351 78.15558 34791 ft 516 kts 149°
2026-05-04 09:21 29.12667 78.20566 34792 ft 516 kts 149°
2026-05-04 09:22 29.07003 78.25549 34782 ft 517 kts 149°
2026-05-04 09:22 29.01289 78.30568 34789 ft 516 kts 149°
2026-05-04 09:23 28.95566 78.35587 34801 ft 520 kts 149°
2026-05-04 09:23 28.89865 78.40582 34795 ft 518 kts 149°
2026-05-04 09:25 28.66927 78.60603 34798 ft 518 kts 149°
2026-05-04 09:26 28.61202 78.65583 34797 ft 520 kts 150°
2026-05-04 09:26 28.55439 78.70588 34780 ft 522 kts 150°
2026-05-04 09:27 28.49690 78.75576 34794 ft 517 kts 150°
2026-05-04 09:27 28.44211 78.80949 34787 ft 529 kts 142°
2026-05-04 09:28 28.39024 78.86887 34784 ft 526 kts 142°
2026-05-04 09:28 28.33873 78.92776 34781 ft 525 kts 142°
2026-05-04 09:29 28.28702 78.98673 34782 ft 529 kts 142°
2026-05-04 09:29 28.23519 79.04569 34778 ft 529 kts 142°
2026-05-04 09:30 28.18308 79.10488 34789 ft 530 kts 142°
2026-05-04 09:30 28.13100 79.16394 34780 ft 529 kts 142°
2026-05-04 09:31 28.07881 79.22302 34782 ft 531 kts 142°
2026-05-04 09:31 28.02708 79.28150 34792 ft 531 kts 142°
2026-05-04 09:32 27.97497 79.34031 34792 ft 531 kts 142°
2026-05-04 09:34 27.76563 79.57575 34809 ft 530 kts 142°
2026-05-04 09:34 27.71322 79.63447 34795 ft 529 kts 142°
2026-05-04 09:35 27.66211 79.69556 34799 ft 535 kts 137°
2026-05-04 09:35 27.61479 79.76026 34802 ft 539 kts 136°
2026-05-04 09:37 27.42300 80.01829 34799 ft 537 kts 137°
2026-05-04 09:38 27.37480 80.08252 34809 ft 537 kts 137°
2026-05-04 09:38 27.32650 80.14675 34801 ft 536 kts 137°
2026-05-04 09:39 27.27812 80.21095 34808 ft 538 kts 137°
2026-05-04 09:39 27.22996 80.27479 34812 ft 539 kts 136°
2026-05-04 09:40 27.18128 80.33920 34809 ft 537 kts 136°
2026-05-04 09:40 27.13313 80.40282 34819 ft 537 kts 136°
2026-05-04 09:42 26.93876 80.65866 34813 ft 539 kts 137°
2026-05-04 09:43 26.89014 80.72243 34798 ft 537 kts 137°
2026-05-04 09:43 26.84153 80.78607 34791 ft 536 kts 137°
2026-05-04 09:44 26.79287 80.84970 34797 ft 538 kts 137°
2026-05-04 09:46 26.61214 81.11864 34795 ft 543 kts 132°
2026-05-04 09:46 26.56788 81.18669 34800 ft 544 kts 132°
2026-05-04 09:47 26.52350 81.25471 34802 ft 541 kts 132°
2026-05-04 09:49 26.34547 81.52598 34792 ft 542 kts 132°
2026-05-04 09:51 26.18901 81.76290 34779 ft 542 kts 133°
2026-05-04 09:51 26.14439 81.83024 34773 ft 541 kts 132°
2026-05-04 09:52 26.09985 81.89735 34775 ft 541 kts 132°
2026-05-04 09:52 26.05514 81.96464 34774 ft 541 kts 133°
2026-05-04 09:53 26.01007 82.03236 34774 ft 540 kts 133°
2026-05-04 09:53 25.96532 82.09948 34774 ft 542 kts 132°
2026-05-04 09:54 25.92045 82.16672 34777 ft 541 kts 132°
2026-05-04 09:54 25.87571 82.23364 34782 ft 541 kts 132°
2026-05-04 09:55 25.83085 82.30065 34785 ft 542 kts 132°
2026-05-04 09:55 25.78607 82.36745 34784 ft 541 kts 132°
2026-05-04 09:56 25.74107 82.43447 34782 ft 541 kts 132°
2026-05-04 09:56 25.69598 82.50153 34783 ft 542 kts 132°
2026-05-04 09:57 25.65095 82.56843 34785 ft 542 kts 132°
2026-05-04 09:57 25.60584 82.63532 34787 ft 541 kts 132°
2026-05-04 09:58 25.56067 82.70223 34771 ft 542 kts 132°
2026-05-04 09:58 25.51539 82.76919 34772 ft 541 kts 132°
2026-05-04 10:00 25.39640 83.03153 34777 ft 556 kts 114°
2026-05-04 10:00 25.38316 83.07143 34777 ft 555 kts 114°
2026-05-04 10:04 25.19495 83.63075 34801 ft 556 kts 114°
2026-05-04 10:04 25.16770 83.71097 34790 ft 555 kts 114°
2026-05-04 10:05 25.14072 83.79020 34790 ft 556 kts 114°
2026-05-04 10:05 25.11355 83.86984 34794 ft 556 kts 114°
2026-05-04 10:06 25.08626 83.94967 34796 ft 554 kts 114°
2026-05-04 10:06 25.05912 84.02887 34793 ft 555 kts 114°